Weather History for KLHZ - February, 2014

Change the Weather History Date:

Monday, February 10, 2014

  Actual Average (KRDU) Record (KRDU)
Temperature  
Mean Temperature 40 °F 44 °F  
Max Temperature 44 °F 54 °F 75 °F (1938)
Min Temperature 35 °F 33 °F 8 °F (1979)
Degree Days  
Heating Degree Days 26 21  
Month to date heating degree days 222  
Since 1 July heating degree days 2219  
Cooling Degree Days 0 0  
Month to date cooling degree days 0  
Year to date cooling degree days 0  
Moisture  
Dew Point 33 °F    
Average Humidity 81    
Maximum Humidity 93    
Minimum Humidity 57    
Precipitation  
Precipitation 0.05 in 0.11 in 1.75 in (1946)
Month to date precipitation 1.10  
Year to date precipitation 4.60  
Snow  
Snow 0.00 in 0.10 in 4.50 in (1973)
Month to date snowfall 0.8  
Since 1 July snowfall 4.4  
Snow Depth -    
Sea Level Pressure  
Sea Level Pressure 30.16 in    
Wind  
Wind Speed 1 mph (NNE)    
Max Wind Speed 9 mph    
Max Gust Speed -    
Visibility 7 miles    
Events Rain , Snow    
T = Trace of Precipitation, MM = Missing Value Source: NWS Daily Summary

Daily Weather History Graph

Daily Weather History Graph

Search for Another Location

Airport or City:

Trip Planner

Search our weather history database for the weather conditions in past years. The results will help you decide how hot, cold, wet, or windy it might be!

Date:

Astronomy

Feb. 10, 2014 Rise Set
Actual Time 7:05 AM EST 5:49 PM EST
Civil Twilight 6:39 AM EST 6:16 PM EST
Nautical Twilight 6:09 AM EST 6:46 PM EST
Astronomical Twilight 5:39 AM EST 7:16 PM EST
Moon 2:20 PM EST (2/10) 3:54 AM EST (2/10)
Length of Visible Light 11h 36m
Length of Day
10h 43m
Waxing Gibbous, 84% of the Moon is Illuminated
Feb 10
Waxing Gibbous
Feb 14
Full
Feb 22
Last Quarter
Mar 1
New
Mar 8
First Quarter

Hourly Weather History & Observations

Time (EST) Temp. Windchill Dew Point Humidity Pressure Visibility Wind Dir Wind Speed Gust Speed Precip Events Conditions
12:15 AM 41.0 °F - 35.6 °F 81% 30.03 in 7.0 mi Calm Calm - N/A   Clear
12:35 AM 39.2 °F - 35.6 °F 87% 30.03 in 7.0 mi Calm Calm - N/A   Clear
12:55 AM 39.2 °F - 35.6 °F 87% 30.03 in 7.0 mi Calm Calm - N/A   Clear
1:15 AM 37.4 °F - 33.8 °F 87% 30.01 in 5.0 mi Calm Calm - N/A   Clear
1:35 AM 35.6 °F - 33.8 °F 93% 30.02 in 4.0 mi Calm Calm - N/A   Clear
1:55 AM 37.4 °F - 33.8 °F 87% 30.05 in 7.0 mi Calm Calm - N/A   Clear
2:15 AM 37.4 °F - 33.8 °F 87% 30.05 in 7.0 mi Calm Calm - N/A   Clear
2:35 AM 37.4 °F - 33.8 °F 87% 30.05 in 7.0 mi Calm Calm - N/A   Clear
2:55 AM 37.4 °F - 33.8 °F 87% 30.06 in 7.0 mi Calm Calm - N/A   Clear
3:15 AM 35.6 °F - 33.8 °F 93% 30.07 in 7.0 mi Calm Calm - N/A   Clear
3:35 AM 35.6 °F - 33.8 °F 93% 30.08 in 7.0 mi Calm Calm - N/A   Clear
3:55 AM 35.6 °F - 33.8 °F 93% 30.07 in 7.0 mi Calm Calm - N/A   Clear
4:15 AM 35.6 °F - 32.0 °F 87% 30.07 in 7.0 mi Calm Calm - N/A   Clear
4:35 AM 35.6 °F - 32.0 °F 87% 30.08 in 7.0 mi Calm Calm - N/A   Clear
4:55 AM 37.4 °F - 33.8 °F 87% 30.10 in 10.0 mi Calm Calm - N/A   Scattered Clouds
5:15 AM 37.4 °F - 32.0 °F 81% 30.09 in 10.0 mi Calm Calm - N/A   Scattered Clouds
5:35 AM 37.4 °F - 33.8 °F 87% 30.10 in 10.0 mi Calm Calm - N/A   Clear
5:55 AM 37.4 °F 34.9 °F 32.0 °F 81% 30.09 in 10.0 mi North 3.5 mph - N/A   Clear
6:15 AM 37.4 °F 34.9 °F 32.0 °F 81% 30.08 in 10.0 mi NNW 3.5 mph - N/A   Clear
6:35 AM 39.2 °F - 32.0 °F 75% 30.08 in 10.0 mi Calm Calm - N/A   Clear
6:55 AM 39.2 °F 37.0 °F 30.2 °F 70% 30.11 in 10.0 mi NNW 3.5 mph - N/A   Clear
7:15 AM 39.2 °F - 32.0 °F 75% 30.12 in 10.0 mi Calm Calm - N/A   Clear
7:35 AM 39.2 °F - 30.2 °F 70% 30.13 in 10.0 mi Calm Calm - N/A   Clear
7:55 AM 39.2 °F - 32.0 °F 75% 30.13 in 10.0 mi Calm Calm - N/A   Clear
8:15 AM 39.2 °F - 32.0 °F 75% 30.15 in 10.0 mi Calm Calm - N/A   Clear
8:35 AM 41.0 °F 39.0 °F 32.0 °F 70% 30.14 in 10.0 mi North 3.5 mph - N/A   Clear
8:55 AM 41.0 °F - 30.2 °F 65% 30.17 in 10.0 mi Calm Calm - N/A   Scattered Clouds
9:15 AM 42.8 °F - 30.2 °F 61% 30.18 in 10.0 mi Calm Calm - N/A   Overcast
9:35 AM 42.8 °F 41.1 °F 30.2 °F 61% 30.18 in 10.0 mi North 3.5 mph - N/A   Overcast
9:55 AM 42.8 °F 41.1 °F 30.2 °F 61% 30.19 in 10.0 mi NNW 3.5 mph - N/A   Overcast
10:15 AM 42.8 °F 41.1 °F 30.2 °F 61% 30.19 in 10.0 mi North 3.5 mph - N/A   Overcast
10:35 AM 42.8 °F 41.1 °F 30.2 °F 61% 30.20 in 10.0 mi North 3.5 mph - N/A   Overcast
10:55 AM 42.8 °F 39.3 °F 30.2 °F 61% 30.21 in 10.0 mi North 5.8 mph - N/A   Overcast
11:15 AM 44.6 °F 42.2 °F 30.2 °F 57% 30.20 in 10.0 mi NE 4.6 mph - N/A   Mostly Cloudy
11:35 AM 42.8 °F 37.5 °F 28.4 °F 57% 30.20 in 10.0 mi NNE 9.2 mph - N/A   Scattered Clouds
11:55 AM 42.8 °F 38.6 °F 32.0 °F 66% 30.20 in 7.0 mi NNE 6.9 mph - N/A Rain Light Rain
12:15 PM 41.0 °F 35.8 °F 33.8 °F 76% 30.18 in 5.0 mi NNE 8.1 mph - N/A Rain Light Rain
12:35 PM 41.0 °F 37.1 °F 33.8 °F 76% 30.19 in 7.0 mi NNE 5.8 mph - N/A Rain Light Rain
12:55 PM 41.0 °F 35.8 °F 33.8 °F 76% 30.18 in 7.0 mi NE 8.1 mph - N/A Rain Light Rain
1:15 PM 41.0 °F 38.0 °F 33.8 °F 76% 30.18 in 7.0 mi NNE 4.6 mph - 0.01 in Rain Rain
1:35 PM 39.2 °F 35.9 °F 33.8 °F 81% 30.17 in 7.0 mi North 4.6 mph - 0.01 in Rain Light Rain
1:55 PM 39.2 °F 35.9 °F 35.6 °F 87% 30.17 in 7.0 mi NNE 4.6 mph - 0.01 in Rain Light Rain
2:15 PM 39.2 °F 35.9 °F 35.6 °F 87% 30.16 in 5.0 mi NE 4.6 mph - 0.01 in Rain Rain
2:35 PM 39.2 °F 35.0 °F 35.6 °F 87% 30.16 in 4.0 mi NE 5.8 mph - 0.01 in Rain Light Rain
2:55 PM 39.2 °F 35.0 °F 35.6 °F 87% 30.16 in 5.0 mi NE 5.8 mph - 0.02 in   Drizzle
3:15 PM 37.4 °F 34.9 °F 33.8 °F 87% 30.16 in 4.0 mi NE 3.5 mph - N/A Rain Rain
3:35 PM 39.2 °F - 35.6 °F 87% 30.18 in 5.0 mi Calm Calm - N/A Rain Light Rain
3:55 PM 39.2 °F 35.9 °F 33.8 °F 81% 30.18 in 7.0 mi NE 4.6 mph - 0.01 in Rain Light Rain
4:15 PM 37.4 °F 34.9 °F 33.8 °F 87% 30.18 in 7.0 mi ENE 3.5 mph - N/A Rain Light Rain
4:35 PM 37.4 °F 34.9 °F 33.8 °F 87% 30.18 in 7.0 mi ENE 3.5 mph - N/A Rain Light Rain
4:55 PM 37.4 °F 34.9 °F 35.6 °F 93% 30.19 in 5.0 mi ENE 3.5 mph - N/A   Light Drizzle
5:15 PM 37.4 °F 34.9 °F 33.8 °F 87% 30.20 in 5.0 mi NNE 3.5 mph - N/A   Drizzle
5:35 PM 37.4 °F 33.8 °F 33.8 °F 87% 30.20 in 7.0 mi ENE 4.6 mph - N/A   Light Drizzle
5:55 PM 37.4 °F - 33.8 °F 87% 30.21 in 10.0 mi Calm Calm - N/A   Scattered Clouds
6:15 PM 37.4 °F - 33.8 °F 87% 30.22 in 7.0 mi Calm Calm - N/A   Light Drizzle
6:35 PM 37.4 °F - 33.8 °F 87% 30.21 in 7.0 mi Calm Calm - N/A   Light Drizzle
6:55 PM 37.4 °F - 33.8 °F 87% 30.23 in 7.0 mi Calm Calm - N/A Rain Light Rain
7:15 PM 37.4 °F - 33.8 °F 87% 30.23 in 7.0 mi Calm Calm - N/A   Light Drizzle
7:35 PM 37.4 °F - 33.8 °F 87% 30.23 in 7.0 mi Calm Calm - N/A Snow Light Snow
7:55 PM 37.4 °F - 33.8 °F 87% 30.23 in 7.0 mi Calm Calm - 0.01 in Snow Light Snow
8:15 PM 37.4 °F - 33.8 °F 87% 30.23 in 7.0 mi Calm Calm - N/A   Light Drizzle
8:35 PM 37.4 °F - 33.8 °F 87% 30.24 in 7.0 mi Calm Calm - N/A   Scattered Clouds
8:55 PM 35.6 °F - 33.8 °F 93% 30.24 in 3.0 mi Calm Calm - N/A   Mostly Cloudy
9:15 PM 35.6 °F - 33.8 °F 93% 30.25 in 4.0 mi Calm Calm - N/A   Scattered Clouds
9:35 PM 37.4 °F - 33.8 °F 87% 30.25 in 5.0 mi Calm Calm - N/A   Mostly Cloudy
9:55 PM 37.4 °F - 33.8 °F 87% 30.25 in 5.0 mi Calm Calm - N/A   Overcast
10:15 PM 37.4 °F - 33.8 °F 87% 30.25 in 5.0 mi Calm Calm - N/A   Mostly Cloudy
10:35 PM 37.4 °F - 33.8 °F 87% 30.25 in 5.0 mi Calm Calm - N/A   Mostly Cloudy
10:55 PM 37.4 °F - 33.8 °F 87% 30.25 in 5.0 mi Calm Calm - N/A   Scattered Clouds
11:15 PM 37.4 °F - 33.8 °F 87% 30.26 in 5.0 mi Calm Calm - N/A   Mostly Cloudy
11:35 PM 37.4 °F 34.9 °F 33.8 °F 87% 30.26 in 4.0 mi NE 3.5 mph - N/A   Overcast
11:55 PM 37.4 °F - 33.8 °F 87% 30.26 in 4.0 mi Calm Calm - N/A   Mostly Cloudy